Tracking 35334 objects as of 13-Sep-2026
HD Live streaming from Space Station
objects crossing your sky now

STARLINK-38154

Track STARLINK-38154 now!
10-day predictions
STARLINK-38154 is classified as:


NORAD ID: 100258
Int'l Code: 2026-181N
Launch date: August 8, 2026
Source: United States (US)
Launch site: AIR FORCE WESTERN TEST RANGE (AFWTR)
Your satellite tracking list
Your tracking list is empty




NASA's NSSDC Master Catalog

Two Line Element Set (TLE):
1 A0258U 26181N   26256.07937059  .00185385  00000-0  12131-2 0  9994
2 A0258  97.2823 299.3306 0001800 123.0004 237.1435 15.75263551  6796
Source of the keplerian elements: AFSPC